Regional Weather Roundup
Issued by NWS Nashville, TN

Home | Current Version | Previous Version | Text Only | Print | Product List | Glossary On
Versions: 1 2 3 4 5 6 7 8 9 10 11 12 13 14 15 16 17 18 19 20 21 22 23 24 25 26 27 28 29 30 31 32 33 34 35 36 37 38 39 40 41 42 43 44 45 46 47 48 49 50
000
ASUS44 KOHX 232105
RWROHX
MIDDLE TENNESSEE HOURLY WEATHER ROUNDUP
NATIONAL WEATHER SERVICE NASHVILLE TN
400 PM CDT WED APR 23 2014

NOTE: "FAIR" INDICATES FEW OR NO CLOUDS BELOW 12,000 FEET WITH
NO SIGNIFICANT WEATHER AND/OR OBSTRUCTIONS TO VISIBILITY.

* THESE REPORTS ARE NOT UNDER NWS QUALITY CONTROL AND MAY NOT
  REPORT WEATHER SUCH AS PRECIPITATION AND FOG.


TNZ005>011-023>034-057-059-062>066-078-080-232200
...NORTHERN MIDDLE TENNESSEE...

CITY           SKY/WX    TMP DP  RH WIND       PRES   REMARKS
CLARKSVILLE    SUNNY     66  34  30 CALM      30.01F
COLUMBIA       SUNNY     70  46  43 E6        29.97F
CROSSVILLE     SUNNY     66  24  20 NE8       29.99F
GALLATIN         N/A     68  33  27 VRB3      30.01F
DICKSON        SUNNY     66  32  28 N8        30.00F
LIVINGSTON     SUNNY     63  29  27 NE8       30.01F
NASHVILLE      MOSUNNY   70  34  26 N7        30.00F
PORTLAND       SUNNY     64  32  29 N7        30.01F
SMYRNA         SUNNY     70  33  25 VRB5      30.01F
SPARTA         SUNNY     68  34  28 VRB3      29.99F
$$
TNZ056-058-060-061-075>077-079-093>097-232200
...SOUTHERN MIDDLE TENNESSEE...

CITY           SKY/WX    TMP DP  RH WIND       PRES   REMARKS
FAYETTEVILLE   SUNNY     69  36  29 NE7       29.97F
LEWISBURG      SUNNY     69  36  29 N8        29.98F
MCMINNVILLE      N/A     68  34  28 NE6       29.99F
MURFREESBORO   SUNNY     69  30  23 N9        29.99F
SHELBYVILLE    SUNNY     68  39  34 N8        30.00F
TULLAHOMA      SUNNY     70  36  28 NW9       29.98F
WINCHESTER     SUNNY     70  37  30 N9        29.97F
$$


...KEY TO REMARKS...
VSB - VISIBILITY IN MILES
WCI - WIND CHILL INDEX
HX  - HEAT INDEX




USA.gov is the U.S. government's official web portal to all federal, state and local government web resources and services.